KC5TIL-3 Weather Reports


Display with metric or nautical units.
time (UTC)temp
F
wind
direction
speed
MPH
gust
MPH
rain 1hr
in
rain 24hr
in
rain mn
in
humidity
%
barometer
mb
20260901215940 97 137 8.0 12.0 0.00 0.00 0.00 13 1010.8
20260901215439 99 107 5.0 10.0 0.00 0.00 0.00 13 1010.8
20260901214940 99 160 4.0 7.0 0.00 0.00 0.00 13 1010.8
20260901214442 98 243 0.0 12.0 0.00 0.00 0.00 13 1010.8
20260901213941 98 136 8.0 11.0 0.00 0.00 0.00 13 1010.8
20260901213443 96 112 8.0 7.0 0.00 0.00 0.00 13 1010.8
20260901212935 97 118 3.0 8.0 0.00 0.00 0.00 13 1010.8
20260901212434 97 117 4.0 12.0 0.00 0.00 0.00 13 1010.8
20260901211936 97 124 7.0 11.0 0.00 0.00 0.00 13 1010.8
20260901211437 97 100 6.0 11.0 0.00 0.00 0.00 13 1010.8
20260901210936 97 110 8.0 10.0 0.00 0.00 0.00 13 1010.8
20260901210438 98 194 4.0 12.0 0.00 0.00 0.00 13 1010.8
20260901205940 96 113 8.0 11.0 0.00 0.00 0.00 16 1011.8
20260901205438 97 129 8.0 10.0 0.00 0.00 0.00 16 1011.8
20260901204940 97 131 8.0 11.0 0.00 0.00 0.00 16 1011.8
20260901204442 97 133 6.0 13.0 0.00 0.00 0.00 16 1011.8
20260901203941 96 118 7.0 12.0 0.00 0.00 0.00 16 1011.8
20260901203442 97 141 6.0 7.0 0.00 0.00 0.00 16 1011.8
20260901202944 97 108 4.0 8.0 0.00 0.00 0.00 16 1011.8
20260901202443 96 79 5.0 8.0 0.00 0.00 0.00 16 1011.8
20260901201945 96 106 4.0 9.0 0.00 0.00 0.00 16 1011.8
20260901201442 97 107 4.0 10.0 0.00 0.00 0.00 16 1011.8
20260901200940 96 114 3.0 14.0 0.00 0.00 0.00 16 1011.8
20260901200442 96 199 6.0 12.0 0.00 0.00 0.00 16 1011.8
20260901195943 96 128 3.0 12.0 0.00 0.00 0.00 16 1011.8
20260901195442 95 101 8.0 13.0 0.00 0.00 0.00 16 1011.8
20260901194944 96 130 9.0 12.0 0.00 0.00 0.00 16 1011.8
20260901194441 97 127 7.0 12.0 0.00 0.00 0.00 16 1011.8
20260901193940 97 132 9.0 8.0 0.00 0.00 0.00 16 1011.8
20260901193442 98 115 0.0 3.0 0.00 0.00 0.00 15 1011.8
20260901192944 96 116 0.0 12.0 0.00 0.00 0.00 16 1012.8
20260901192442 95 115 4.0 13.0 0.00 0.00 0.00 16 1012.8
20260901191944 94 116 11.0 6.0 0.00 0.00 0.00 16 1012.8
20260901191445 95 117 3.0 10.0 0.00 0.00 0.00 16 1012.8
20260901190939 95 131 0.0 9.0 0.00 0.00 0.00 16 1012.8
20260901190441 95 139 4.0 14.0 0.00 0.00 0.00 16 1012.8
20260901185937 95 191 7.0 13.0 0.00 0.00 0.00 16 1012.8
20260901185436 94 111 10.0 10.0 0.00 0.00 0.00 16 1012.8
20260901184938 95 121 0.0 12.0 0.00 0.00 0.00 16 1012.8
20260901184439 95 109 10.0 7.0 0.00 0.00 0.00 16 1012.8
20260901183938 97 98 3.0 11.0 0.00 0.00 0.00 16 1012.8
20260901183440 95 223 4.0 12.0 0.00 0.00 0.00 16 1012.8
20260901182941 94 111 9.0 14.0 0.00 0.00 0.00 16 1013.8
20260901182440 96 135 8.0 12.0 0.00 0.00 0.00 16 1013.8
20260901181942 96 130 9.0 8.0 0.00 0.00 0.00 16 1013.8
20260901181443 96 121 5.0 8.0 0.00 0.00 0.00 16 1013.8
20260901180942 95 151 6.0 12.0 0.00 0.00 0.00 16 1013.8
20260901180444 96 133 6.0 5.0 0.00 0.00 0.00 16 1013.8
20260901175946 97 140 0.0 8.0 0.00 0.00 0.00 16 1013.8
20260901175444 95 158 4.0 9.0 0.00 0.00 0.00 17 1013.8
20260901174946 94 144 6.0 9.0 0.00 0.00 0.00 17 1013.8
20260901174438 95 14 4.0 7.0 0.00 0.00 0.00 17 1013.8
20260901173936 94 246 4.0 6.0 0.00 0.00 0.00 17 1013.8
20260901173437 94 162 0.0 8.0 0.00 0.00 0.00 17 1013.8
20260901172939 95 159 7.0 8.0 0.00 0.00 0.00 17 1013.8
20260901172432 94 109 4.0 10.0 0.00 0.00 0.00 17 1013.8
20260901171934 94 124 7.0 10.0 0.00 0.00 0.00 17 1013.8
20260901171435 94 199 4.0 11.0 0.00 0.00 0.00 17 1013.8
20260901170934 93 116 8.0 12.0 0.00 0.00 0.00 17 1013.8
20260901170431 92 114 7.0 9.0 0.00 0.00 0.00 18 1014.8
20260901165933 94 115 4.0 11.0 0.00 0.00 0.00 17 1014.8
20260901165427 94 127 6.0 7.0 0.00 0.00 0.00 17 1014.8
20260901164923 94 157 3.0 10.0 0.00 0.00 0.00 17 1014.8
20260901164420 93 121 6.0 7.0 0.00 0.00 0.00 18 1014.8
20260901163421 93 161 4.0 10.0 0.00 0.00 0.00 18 1014.8
20260901162922 93 124 4.0 9.0 0.00 0.00 0.00 18 1014.8
20260901162416 94 208 4.0 8.0 0.00 0.00 0.00 18 1014.8
20260901161918 93 189 3.0 7.0 0.00 0.00 0.00 18 1014.8
20260901161420 92 202 0.0 7.0 0.00 0.00 0.00 19 1014.8
20260901160918 91 213 3.0 8.0 0.00 0.00 0.00 19 1014.8
20260901160420 91 211 5.0 7.0 0.00 0.00 0.00 19 1014.8
20260901155922 92 148 4.0 5.0 0.00 0.00 0.00 19 1014.8
20260901155420 91 191 3.0 9.0 0.00 0.00 0.00 19 1014.8
20260901154922 91 130 6.0 7.0 0.00 0.00 0.00 19 1014.8
20260901154424 91 177 0.0 8.0 0.00 0.00 0.00 20 1014.8
20260901153923 90 193 4.0 10.0 0.00 0.00 0.00 20 1014.8
20260901153425 90 206 7.0 6.0 0.00 0.00 0.00 21 1014.8
20260901152926 90 199 4.0 7.0 0.00 0.00 0.00 21 1014.8
20260901152420 89 131 4.0 8.0 0.00 0.00 0.00 22 1014.8
20260901151922 90 65 4.0 7.0 0.00 0.00 0.00 23 1014.8
20260901151424 89 246 4.0 6.0 0.00 0.00 0.00 25 1014.8
20260901150922 88 177 0.0 7.0 0.00 0.00 0.00 26 1014.8
20260901150424 88 199 3.0 8.0 0.00 0.00 0.00 27 1014.8
20260901145926 87 207 4.0 11.0 0.00 0.00 0.00 28 1014.8
20260901145425 87 213 6.0 7.0 0.00 0.00 0.00 28 1014.8
20260901144927 87 135 6.0 7.0 0.00 0.00 0.00 28 1014.8
20260901144428 87 219 5.0 10.0 0.00 0.00 0.00 28 1014.8
20260901143927 86 212 7.0 7.0 0.00 0.00 0.00 29 1014.8
20260901142420 86 183 3.0 5.0 0.00 0.00 0.00 31 1014.8
20260901141922 85 172 0.0 5.0 0.00 0.00 0.00 32 1014.8
20260901141424 85 169 0.0 5.0 0.00 0.00 0.00 32 1014.8
20260901140923 85 156 0.0 6.0 0.00 0.00 0.00 33 1014.8
20260901140425 85 200 3.0 7.0 0.00 0.00 0.00 33 1014.8
20260901135926 84 120 6.0 6.0 0.00 0.00 0.00 34 1014.8
20260901135425 85 132 3.0 4.0 0.00 0.00 0.00 33 1014.8
20260901134927 85 130 0.0 6.0 0.00 0.00 0.00 35 1014.8
20260901134429 84 129 0.0 5.0 0.00 0.00 0.00 35 1014.8
20260901133927 83 129 0.0 5.0 0.00 0.00 0.00 36 1014.8
20260901133429 83 126 4.0 5.0 0.00 0.00 0.00 36 1014.8
20260901132931 83 127 4.0 6.0 0.00 0.00 0.00 36 1014.8
20260901132430 82 126 4.0 6.0 0.00 0.00 0.00 37 1014.8
20260901131932 82 124 4.0 7.0 0.00 0.00 0.00 37 1014.8
20260901131433 82 124 4.0 7.0 0.00 0.00 0.00 38 1014.8
20260901130932 82 120 5.0 7.0 0.00 0.00 0.00 38 1014.8
20260901130434 81 130 0.0 7.0 0.00 0.00 0.00 38 1014.8
20260901125935 81 124 4.0 4.0 0.00 0.00 0.00 38 1014.8
20260901125434 81 191 0.0 3.0 0.00 0.00 0.00 38 1014.8
20260901124936 81 200 0.0 3.0 0.00 0.00 0.00 39 1014.8
20260901124438 81 201 0.0 5.0 0.00 0.00 0.00 40 1013.8
20260901123936 80 220 0.0 4.0 0.00 0.00 0.00 40 1013.8
20260901123438 80 188 3.0 4.0 0.00 0.00 0.00 40 1013.8
20260901122940 80 186 0.0 6.0 0.00 0.00 0.00 40 1013.8
20260901122439 80 200 3.0 7.0 0.00 0.00 0.00 40 1013.8
20260901121941 80 198 4.0 7.0 0.00 0.00 0.00 40 1013.8
20260901121442 80 215 5.0 6.0 0.00 0.00 0.00 39 1013.8
20260901120937 80 192 4.0 6.0 0.00 0.00 0.00 40 1013.8
20260901120438 80 181 4.0 6.0 0.00 0.00 0.00 40 1013.8
20260901115940 80 207 5.0 6.0 0.00 0.00 0.00 39 1013.8
20260901115434 80 211 4.0 7.0 0.00 0.00 0.00 39 1013.8
20260901114936 80 216 4.0 7.0 0.00 0.00 0.00 39 1013.8
20260901114438 80 218 5.0 6.0 0.00 0.00 0.00 39 1013.8
20260901113937 80 227 3.0 6.0 0.00 0.00 0.00 39 1013.8
20260901113438 80 201 3.0 8.0 0.00 0.00 0.00 39 1013.8
20260901112940 80 218 5.0 7.0 0.00 0.00 0.00 38 1013.8
20260901112439 81 225 3.0 7.0 0.00 0.00 0.00 38 1013.8
20260901111941 81 219 3.0 7.0 0.00 0.00 0.00 38 1013.8
20260901111438 81 211 5.0 7.0 0.00 0.00 0.00 37 1013.8
20260901110937 81 194 3.0 7.0 0.00 0.00 0.00 37 1013.8
20260901110439 81 215 4.0 8.0 0.00 0.00 0.00 36 1013.8
20260901105936 81 192 6.0 10.0 0.00 0.00 0.00 36 1013.8
20260901105435 81 212 7.0 7.0 0.00 0.00 0.00 36 1013.8
20260901104937 82 222 6.0 9.0 0.00 0.00 0.00 35 1013.8
20260901104438 82 191 5.0 9.0 0.00 0.00 0.00 35 1013.8
20260901103937 82 171 4.0 9.0 0.00 0.00 0.00 34 1013.8
20260901103434 82 196 6.0 7.0 0.00 0.00 0.00 34 1013.8
20260901102936 82 191 5.0 8.0 0.00 0.00 0.00 34 1013.8
20260901102430 82 186 5.0 10.0 0.00 0.00 0.00 34 1013.8
20260901101434 83 202 7.0 8.0 0.00 0.00 0.00 34 1013.8
20260901100932 83 175 5.0 10.0 0.00 0.00 0.00 34 1013.8
20260901100434 83 209 8.0 9.0 0.00 0.00 0.00 33 1013.8
20260901095936 83 223 6.0 9.0 0.00 0.00 0.00 33 1013.8
20260901095434 83 211 6.0 10.0 0.00 0.00 0.00 32 1013.8
20260901094932 83 195 7.0 11.0 0.00 0.00 0.00 33 1013.8
20260901094434 83 218 6.0 11.0 0.00 0.00 0.00 32 1013.8
20260901093928 83 200 9.0 12.0 0.00 0.00 0.00 32 1013.8
20260901093430 83 234 9.0 11.0 0.00 0.00 0.00 32 1013.8
20260901092931 84 159 7.0 10.0 0.00 0.00 0.00 31 1013.8
20260901092430 84 174 5.0 11.0 0.00 0.00 0.00 31 1013.8
20260901091932 84 213 7.0 10.0 0.00 0.00 0.00 31 1013.8
20260901091434 84 203 7.0 9.0 0.00 0.00 0.00 31 1013.8
20260901090928 84 201 7.0 10.0 0.00 0.00 0.00 31 1013.8
20260901090430 84 208 7.0 10.0 0.00 0.00 0.00 31 1013.8
20260901085931 84 215 6.0 8.0 0.00 0.00 0.00 30 1013.8
20260901085430 83 195 4.0 9.0 0.00 0.00 0.00 30 1013.8
20260901084932 83 159 5.0 9.0 0.00 0.00 0.00 30 1013.8
20260901084434 84 230 5.0 9.0 0.00 0.00 0.00 30 1013.8
20260901083932 84 201 4.0 9.0 0.00 0.00 0.00 30 1013.8
20260901083434 84 85 4.0 8.0 0.00 0.00 0.00 29 1013.8
20260901082936 84 174 4.0 7.0 0.00 0.00 0.00 29 1013.8
20260901082435 84 215 5.0 10.0 0.00 0.00 0.00 29 1013.8
20260901081937 84 123 6.0 10.0 0.00 0.00 0.00 29 1013.8
20260901081433 84 190 6.0 9.0 0.00 0.00 0.00 28 1013.8
20260901080932 84 135 4.0 7.0 0.00 0.00 0.00 27 1013.8
20260901080434 84 174 4.0 10.0 0.00 0.00 0.00 25 1013.8
20260901075936 85 165 4.0 10.0 0.00 0.00 0.00 25 1012.8
20260901075434 85 217 7.0 10.0 0.00 0.00 0.00 24 1012.8
20260901074936 85 201 7.0 11.0 0.00 0.00 0.00 23 1012.8
20260901074433 85 211 5.0 9.0 0.00 0.00 0.00 22 1012.8
20260901073932 84 194 5.0 9.0 0.00 0.00 0.00 22 1012.8
20260901073433 84 195 6.0 10.0 0.00 0.00 0.00 21 1012.8
20260901072935 84 140 6.0 8.0 0.00 0.00 0.00 20 1012.8
20260901072434 84 141 4.0 9.0 0.00 0.00 0.00 20 1012.8
20260901071936 84 159 7.0 9.0 0.00 0.00 0.00 20 1012.8
20260901071438 84 126 5.0 9.0 0.00 0.00 0.00 19 1012.8
20260901070936 84 132 5.0 9.0 0.00 0.00 0.00 19 1012.8
20260901070438 85 119 6.0 9.0 0.00 0.00 0.00 19 1012.8
20260901065940 85 127 6.0 8.0 0.00 0.00 0.00 19 1012.8
20260901065439 85 121 7.0 8.0 0.00 0.00 0.00 19 1012.8
20260901064940 85 118 7.0 8.0 0.00 0.00 0.00 18 1012.8
20260901064442 85 130 5.0 8.0 0.00 0.00 0.00 18 1012.8
20260901063941 85 128 6.0 7.0 0.00 0.00 0.00 18 1012.8
20260901062945 86 128 4.0 7.0 0.00 0.00 0.00 18 1012.8
20260901062443 86 128 4.0 8.0 0.00 0.00 0.00 18 1012.8
20260901061945 86 123 5.0 9.0 0.00 0.00 0.00 18 1012.8
20260901061447 86 121 6.0 9.0 0.00 0.00 0.00 18 1012.8
20260901060946 86 127 6.0 9.0 0.00 0.00 0.00 18 1012.8
20260901060447 86 114 7.0 12.0 0.00 0.00 0.00 18 1012.8
20260901055949 86 115 10.0 6.0 0.00 0.00 0.00 18 1012.8
20260901055448 87 135 3.0 7.0 0.00 0.00 0.00 18 1012.8
20260901054950 87 137 3.0 6.0 0.00 0.00 0.00 18 1012.8
20260901054452 87 137 4.0 5.0 0.00 0.00 0.00 18 1011.8
20260901053950 87 141 4.0 6.0 0.00 0.00 0.00 18 1011.8
20260901052954 87 131 4.0 6.0 0.00 0.00 0.00 18 1011.8
20260901052453 87 138 3.0 6.0 0.00 0.00 0.00 18 1011.8
20260901051954 87 137 0.0 6.0 0.00 0.00 0.00 18 1011.8
20260901051456 88 139 3.0 5.0 0.00 0.00 0.00 18 1011.8
20260901050955 88 133 4.0 6.0 0.00 0.00 0.00 18 1011.8
20260901045959 88 132 4.0 6.0 0.00 0.00 0.00 18 1011.8
20260901045457 88 126 4.0 6.0 0.00 0.00 0.00 18 1011.8
20260901044949 88 131 4.0 7.0 0.00 0.00 0.00 15 1011.8
20260901044451 88 136 4.0 5.0 0.00 0.00 0.00 15 1011.8
20260901043950 88 131 4.0 7.0 0.00 0.00 0.00 15 1011.8
20260901043452 88 133 5.0 7.0 0.00 0.00 0.00 15 1011.8
20260901042953 88 132 4.0 5.0 0.00 0.00 0.00 15 1011.8
20260901042452 89 123 3.0 6.0 0.00 0.00 0.00 15 1011.8
20260901041949 89 119 3.0 6.0 0.00 0.00 0.00 15 1011.8
20260901041451 89 147 4.0 6.0 0.00 0.00 0.00 15 1011.8
20260901040949 89 133 4.0 7.0 0.00 0.00 0.00 15 1011.8
20260901040451 89 126 4.0 7.0 0.00 0.00 0.00 15 1011.8
20260901035943 89 130 5.0 7.0 0.00 0.00 0.00 15 1011.8
20260901035428 89 129 5.0 7.0 0.00 0.00 0.00 15 1011.8
20260901034930 90 130 6.0 7.0 0.00 0.00 0.00 15 1011.8
20260901034413 90 131 4.0 7.0 0.00 0.00 0.00 15 1011.8
20260901033911 90 119 5.0 7.0 0.00 0.00 0.00 15 1011.8
20260901033413 90 125 5.0 6.0 0.00 0.00 0.00 15 1011.8
20260901032915 90 127 4.0 7.0 0.00 0.00 0.00 14 1011.8
20260901032414 90 125 4.0 7.0 0.00 0.00 0.00 14 1011.8
20260901031916 91 127 5.0 9.0 0.00 0.00 0.00 14 1011.8
20260901031417 91 118 4.0 7.0 0.00 0.00 0.00 14 1011.8
20260901030916 91 123 6.0 7.0 0.00 0.00 0.00 14 1011.8
20260901030418 91 132 5.0 6.0 0.00 0.00 0.00 14 1011.8
20260901025920 92 130 4.0 8.0 0.00 0.00 0.00 14 1011.8
20260901025418 92 126 4.0 8.0 0.00 0.00 0.00 14 1011.8
20260901024920 92 131 5.0 7.0 0.00 0.00 0.00 14 1011.8
20260901024422 92 146 4.0 7.0 0.00 0.00 0.00 14 1011.8
20260901023916 92 139 4.0 6.0 0.00 0.00 0.00 14 1011.8
20260901023418 92 139 4.0 7.0 0.00 0.00 0.00 11 1011.8
20260901022920 92 138 4.0 7.0 0.00 0.00 0.00 11 1011.8
20260901022419 93 118 4.0 9.0 0.00 0.00 0.00 11 1011.8
20260901021915 93 130 6.0 8.0 0.00 0.00 0.00 11 1011.8
20260901021417 93 130 6.0 10.0 0.00 0.00 0.00 11 1011.8
20260901020916 93 138 5.0 10.0 0.00 0.00 0.00 11 1011.8
20260901020416 93 126 7.0 9.0 0.00 0.00 0.00 11 1010.8
20260901015917 94 118 8.0 9.0 0.00 0.00 0.00 11 1010.8
20260901015415 94 116 7.0 12.0 0.00 0.00 0.00 11 1010.8
20260901014912 94 117 7.0 9.0 0.00 0.00 0.00 11 1010.8
20260901014414 94 116 6.0 9.0 0.00 0.00 0.00 11 1010.8
20260901013913 94 131 5.0 7.0 0.00 0.00 0.00 11 1010.8
20260901013414 94 134 5.0 8.0 0.00 0.00 0.00 11 1010.8
20260901012916 94 140 6.0 9.0 0.00 0.00 0.00 11 1010.8
20260901012415 95 132 6.0 10.0 0.00 0.00 0.00 11 1010.8
20260901011917 95 131 5.0 8.0 0.00 0.00 0.00 11 1010.8
20260901011419 95 129 6.0 9.0 0.00 0.00 0.00 11 1010.8
20260901010917 95 133 6.0 9.0 0.00 0.00 0.00 11 1010.8
20260901010419 95 115 6.0 10.0 0.00 0.00 0.00 11 1010.8
20260901005912 95 127 6.0 10.0 0.00 0.00 0.00 11 1010.8
20260901005411 95 113 8.0 11.0 0.00 0.00 0.00 11 1010.8
20260901004903 95 127 6.0 13.0 0.00 0.00 0.00 11 1010.8
20260901004405 95 96 10.0 10.0 0.00 0.00 0.00 11 1010.8
20260901003904 96 119 8.0 12.0 0.00 0.00 0.00 11 1010.8
20260901003405 96 117 10.0 12.0 0.00 0.00 0.00 11 1010.8
20260901002907 96 120 9.0 13.0 0.00 0.00 0.00 11 1010.8
20260901002406 96 120 8.0 11.0 0.00 0.00 0.00 11 1010.8
20260901001903 96 135 7.0 13.0 0.00 0.00 0.00 11 1010.8
20260901001400 96 121 10.0 13.0 0.00 0.00 0.00 11 1010.8
20260901000859 96 130 10.0 17.0 0.00 0.00 0.00 11 1010.8
20260901000401 96 111 10.0 13.0 0.00 0.00 0.00 11 1010.8
20260831235902 96 129 12.0 16.0 0.00 0.00 0.00 11 1010.8
20260831235401 97 127 13.0 14.0 0.00 0.00 0.00 11 1010.8
20260831234903 97 141 8.0 17.0 0.00 0.00 0.00 11 1010.8
20260831234405 97 111 14.0 14.0 0.00 0.00 0.00 11 1010.8
20260831233903 97 124 11.0 16.0 0.00 0.00 0.00 11 1010.8
20260831233405 97 117 9.0 12.0 0.00 0.00 0.00 11 1010.8
20260831232907 98 124 7.0 9.0 0.00 0.00 0.00 10 1010.8
20260831232406 98 142 7.0 10.0 0.00 0.00 0.00 10 1010.8
20260831231409 97 127 4.0 6.0 0.00 0.00 0.00 11 1010.8
20260831230908 97 128 4.0 8.0 0.00 0.00 0.00 11 1010.8
20260831230410 97 112 5.0 10.0 0.00 0.00 0.00 11 1010.8
20260831225912 97 140 6.0 10.0 0.00 0.00 0.00 11 1010.8
20260831225410 98 217 5.0 11.0 0.00 0.00 0.00 10 1010.8
20260831224912 98 161 6.0 10.0 0.00 0.00 0.00 10 1010.8
20260831224414 99 148 5.0 13.0 0.00 0.00 0.00 10 1010.8
20260831223913 98 128 10.0 12.0 0.00 0.00 0.00 10 1010.8
20260831223415 98 126 7.0 13.0 0.00 0.00 0.00 10 1010.8
20260831222916 98 115 11.0 8.0 0.00 0.00 0.00 10 1010.8
20260831222415 99 152 3.0 10.0 0.00 0.00 0.00 10 1010.8
20260831221414 99 130 9.0 12.0 0.00 0.00 0.00 10 1010.8
20260831220908 99 126 10.0 12.0 0.00 0.00 0.00 10 1010.8
20260831220410 98 145 9.0 10.0 0.00 0.00 0.00 10 1010.8